Find Morelos 3

NORAD ID: 40946 Int'l Des: 2015-056 Owner: AEMX Country: MX operational
HEOCIRCULARGSO

Aktuelle Ansicht

3D-Globus wird geladen...

Über Morelos 3

Beschreibung wird geladen...

Nächste Überflüge

Passes for default location (London). Set your location on the main map for personalized predictions.

Höhenverlauf

Loading altitude history...

Zweizeiliger Elementsatz

1 40946U 15056A 26151.47887132 -.00000033 00000-0 00000+0 0 9991
2 40946 3.1739 14.6301 0001929 353.9401 299.7045 1.00271928 39119
Epoch: 31. Mai 2026 • Age: 11 hours

Aktueller Status

Höhe 35787.7 km
Geschwindigkeit 3.07 km/s
Subsatellitenpunkt 3.15°N, 113.07°W
Startdatum 2. Okt. 2015
Alter 10.6 years
Typ other

Technische Details

Klassifizierung Payload
Masse 5400.00 kg
Trockenmasse 2800.00 kg
Gesamtmasse 5400.00 kg
Länge 9.00 m
Durchmesser 3.00 m
Spannweite 41.00 m
Form Box + 2pan+dish
Hersteller BOES
Bus-Typ BSS-702HP
Phasenstatus In Orbit
Besitzer/Staat AEMX/MX

Most Searched